Wind_Speed
11 12 12 12 12 11 11 11 11 10 9 10 10 10 10 10 9 10 10 10 10 10 9 8 8 8 8 7 6 6 6 6 6 7 7 7 8 9 9 9 9 8 9
11 11 12 12 12 11 10 10 10 9 9 10 10 10 10 10 10 10 10 11 10 10 9 9 9 8 8 7 7 6 7 7 7 8 7 7 8 9 9 9 9 9 9
11 11 12 13 13 11 10 9 10 10 10 10 10 10 10 10 11 11 11 11 10 10 9 9 9 8 8 8 7 7 7 7 8 8 8 8 8 9 9 9 10 10 10
13 12 12 13 12 11 10 10 10 11 11 10 10 10 10 10 11 11 11 11 11 11 10 9 9 9 9 8 8 8 8 8 8 9 8 8 8 8 9 9 10 11 11
13 13 14 14 13 12 11 11 11 12 12 11 10 11 10 10 11 11 11 11 11 11 10 10 9 10 9 9 9 9 9 9 9 9 9 9 9 9 10 10 11 12 12
14 14 14 13 13 13 12 12 12 12 12 11 11 11 10 10 11 12 12 12 11 11 11 10 10 10 9 9 9 9 9 10 10 9 9 9 9 10 10 11 11 11 12
15 15 15 15 15 14 13 12 12 11 12 12 12 12 11 12 12 12 12 12 11 11 11 11 11 11 10 11 10 10 10 10 10 10 10 10 10 11 12 12 12 12 12
16 16 16 17 16 14 14 13 12 11 12 13 13 12 12 12 12 13 12 12 12 12 12 11 11 11 11 11 11 11 11 11 11 10 11 11 11 12 12 13 13 13 13
16 17 16 16 15 14 14 13 13 12 13 13 13 13 13 13 13 13 13 14 13 12 12 12 11 12 12 12 12 12 13 13 12 12 12 12 12 12 12 13 12 13 14
18 17 15 15 15 14 14 14 13 13 13 13 14 14 14 14 14 14 14 15 14 14 13 12 12 12 12 12 12 13 13 13 13 13 13 13 13 13 13 13 13 13 13
19 18 16 15 15 15 15 14 14 13 14 14 15 15 15 15 15 15 15 15 14 14 13 13 13 13 13 13 13 13 14 13 13 13 13 14 14 13 13 13 13 13 13
20 18 17 16 16 16 16 15 14 15 15 16 16 16 16 16 16 16 16 15 14 15 15 14 14 14 14 14 13 13 13 13 13 13 12 13 13 13 13 13 13 13 13
20 19 18 17 17 18 18 17 16 16 16 17 17 17 17 17 17 16 17 15 14 15 15 15 15 15 15 15 14 14 14 14 13 13 13 12 12 11 12 13 13 13 13
19 19 18 17 18 19 19 18 18 17 17 18 18 18 18 18 17 16 17 16 15 15 15 15 15 16 16 16 15 15 15 14 14 13 13 13 12 11 11 12 12 13 14
20 19 19 19 19 19 19 19 18 18 18 18 18 18 18 18 17 17 17 16 16 16 16 16 17 17 17 17 16 15 15 14 14 13 13 13 12 12 12 12 12 13 13
21 20 20 20 20 20 19 19 18 18 19 19 19 18 18 18 17 17 16 16 16 16 17 17 17 17 17 17 17 16 15 14 13 13 12 12 13 13 13 14 14 14 14
23 21 21 21 21 20 20 20 19 19 19 19 19 19 19 18 17 16 15 15 16 16 17 17 17 17 17 17 17 16 15 14 14 13 14 14 14 14 15 15 15 15 15
24 24 23 21 20 21 21 21 20 19 19 19 19 20 19 18 16 16 16 16 16 17 17 18 17 18 17 17 16 16 16 15 15 15 15 15 15 16 16 16 16 17 17
24 24 24 23 22 21 21 21 21 20 19 20 20 19 19 19 17 16 17 17 17 17 17 18 18 18 18 17 16 16 16 16 16 16 16 15 16 16 17 17 17 18 18
25 25 25 24 23 23 23 22 21 20 21 20 20 20 19 19 18 17 18 18 18 18 18 18 19 18 18 18 17 17 17 17 17 17 17 17 17 17 18 18 18 19 20
25 25 24 24 24 23 23 23 22 21 21 21 21 21 20 20 19 19 19 19 18 18 19 19 19 19 19 18 17 17 17 17 18 18 19 18 18 19 19 20 19 19 20
26 26 25 25 25 25 23 23 22 22 22 21 22 22 21 21 21 20 20 20 19 19 19 20 20 20 19 18 18 18 17 18 18 19 19 20 20 20 21 21 21 21 21
27 27 26 26 25 24 23 23 23 23 22 22 22 22 23 23 22 21 21 21 21 21 20 20 20 20 19 19 19 19 19 19 20 20 20 21 22 22 23 23 23 23 22
26 26 25 25 25 25 24 23 23 24 24 24 23 23 23 23 23 23 22 21 21 21 20 20 20 19 19 19 20 20 19 20 21 22 22 22 23 23 23 24 24 23 23
25 24 25 25 25 24 24 24 24 25 25 25 24 24 24 23 23 24 23 22 21 21 21 20 20 19 20 20 20 21 21 21 22 23 23 23 23 23 23 23 23 23 23
26 25 25 25 25 25 25 25 24 24 24 25 25 24 23 23 24 24 23 22 22 22 22 21 20 20 21 21 21 21 21 22 22 23 22 22 22 23 23 23 23 23 23
Wind_Direction
295 298 301 302 304 303 306 314 316 319 325 330 333 335 337 339 339 338 337 333 330 330 330 328 330 330 326 322 320 312 296 284 278 273 269 265 264 267 262 259 260 262 260
296 297 302 304 300 300 301 307 310 314 320 323 323 328 331 333 334 334 333 332 329 326 325 322 321 322 326 322 316 311 298 287 280 275 271 264 264 261 262 261 262 263 261
293 294 297 297 295 296 295 298 301 308 314 318 317 319 324 327 327 327 328 329 327 326 324 320 314 315 317 320 314 308 301 293 286 282 275 269 262 259 261 262 264 264 263
288 293 292 293 293 291 290 293 295 300 307 312 313 315 319 323 326 325 323 324 326 326 322 322 318 315 314 315 316 310 303 296 291 288 281 271 268 264 260 263 265 264 266
281 286 289 292 285 284 285 289 291 293 301 305 308 310 316 320 324 326 325 321 321 323 321 321 315 314 311 312 312 310 303 301 296 289 281 272 267 265 263 263 263 262 262
280 284 289 293 287 281 282 283 286 287 293 296 298 303 309 315 320 323 324 320 320 321 320 316 313 312 309 307 309 310 306 301 296 289 283 276 273 267 266 264 264 265 265
280 283 284 287 288 282 279 279 277 280 287 290 292 296 303 312 314 318 320 319 318 317 317 316 313 312 309 303 302 304 304 299 295 287 282 277 273 269 270 269 269 268 270
278 280 282 282 281 273 275 275 275 277 285 290 289 295 301 306 309 312 315 316 314 314 316 315 312 313 310 304 300 299 299 297 293 287 281 279 275 272 272 273 271 268 268
270 272 276 280 275 271 271 274 273 272 277 283 288 292 296 299 302 304 307 310 312 311 312 313 310 311 310 308 306 301 299 295 291 285 282 280 278 276 275 276 271 272 273
273 274 275 274 271 268 266 269 271 273 276 285 289 292 294 298 301 301 302 303 304 305 305 307 308 309 313 312 306 302 299 298 294 286 283 280 280 278 275 273 270 273 277
272 273 276 272 270 267 267 267 270 275 281 286 288 291 294 297 298 296 297 299 299 301 303 306 305 305 305 307 307 303 299 297 295 289 283 282 280 277 274 272 270 273 276
270 271 272 271 268 268 270 270 278 279 282 285 288 289 291 294 297 296 295 294 295 295 296 299 301 301 303 303 303 303 303 299 295 290 285 283 279 274 273 274 274 275 277
265 267 270 268 265 266 269 271 275 279 282 285 288 290 293 294 297 295 294 292 292 292 294 295 297 299 301 300 298 299 301 299 294 289 285 284 283 274 275 277 276 275 277
267 267 265 265 264 266 267 269 272 277 280 283 285 288 293 294 295 294 292 288 288 289 291 293 295 296 297 297 297 298 298 294 287 285 283 284 284 280 279 278 277 277 278
266 263 263 262 263 262 265 267 270 275 278 279 282 286 290 291 291 291 293 289 287 289 291 293 293 293 294 295 297 298 297 294 287 285 284 280 283 280 279 280 281 280 281
261 261 262 263 262 261 261 264 267 272 276 278 280 283 285 289 289 289 289 289 290 290 290 292 292 292 292 292 293 294 296 295 288 285 285 283 281 281 280 281 282 284 283
262 260 259 259 263 266 263 263 265 270 273 276 279 281 283 286 286 285 287 286 287 289 292 293 291 290 291 292 291 290 291 290 288 286 281 279 280 282 281 281 281 283 283
259 258 257 258 260 263 269 266 265 266 269 273 277 279 281 283 281 281 286 286 286 288 290 293 294 291 292 291 290 289 289 287 284 285 283 281 282 282 280 281 282 282 284
258 258 259 262 262 261 264 267 268 265 266 271 274 277 278 278 278 279 283 284 285 287 289 291 291 292 293 290 291 288 287 287 284 284 284 284 284 282 279 281 283 284 285
259 260 260 263 265 265 265 265 265 267 269 271 274 276 279 278 276 277 279 281 283 285 288 289 289 290 293 292 290 286 285 285 283 282 283 283 284 282 281 281 283 285 287
259 260 261 263 266 267 265 262 263 266 268 270 274 276 279 279 279 277 277 279 281 284 286 288 289 290 290 290 290 285 284 283 282 282 282 282 282 281 281 282 284 286 287
262 263 263 262 264 265 265 264 264 266 268 270 273 276 278 279 279 277 277 278 280 281 283 285 287 288 288 287 287 284 284 285 283 282 282 283 283 282 283 283 283 285 285
262 262 262 262 264 266 267 266 266 266 267 270 272 274 277 278 278 277 276 276 279 281 282 283 285 286 286 285 285 285 285 285 284 282 282 284 284 284 284 283 283 283 283
259 259 260 262 263 264 264 265 266 266 266 268 270 272 274 275 276 277 278 278 279 280 281 282 283 284 284 284 284 285 285 287 287 284 284 284 285 285 284 283 282 282 283
260 261 261 262 261 263 264 265 267 268 267 268 268 269 271 273 275 276 277 275 276 277 279 281 281 283 285 285 285 285 285 287 288 288 285 284 284 284 284 283 282 284 284
257 259 260 261 262 263 265 266 267 266 267 267 267 269 272 274 275 277 277 277 277 276 277 280 281 282 285 285 285 284 285 286 288 289 286 283 282 283 282 282 282 283 283
Height
5891 5891 5890 5890 5890 5889 5889 5888 5888 5886 5885 5884 5882 5881 5879 5877 5875 5874 5872 5870 5868 5867 5865 5863 5862 5860 5859 5858 5857 5857 5856 5856 5856 5855 5855 5855 5855 5855 5855 5855 5855 5855 5855
5889 5888 5888 5888 5888 5887 5887 5886 5885 5885 5884 5882 5881 5880 5878 5876 5874 5872 5870 5868 5867 5865 5863 5862 5860 5859 5858 5857 5856 5855 5854 5854 5853 5853 5853 5853 5853 5852 5852 5853 5853 5853 5852
5886 5886 5886 5885 5885 5885 5884 5884 5883 5882 5882 5881 5879 5878 5876 5874 5873 5871 5869 5867 5865 5863 5862 5860 5859 5857 5856 5855 5854 5853 5852 5852 5851 5851 5850 5850 5850 5850 5850 5850 5850 5850 5850
5883 5884 5884 5883 5883 5882 5881 5881 5880 5880 5879 5878 5877 5876 5874 5873 5871 5869 5867 5865 5863 5861 5859 5858 5857 5856 5854 5853 5852 5851 5850 5849 5849 5848 5847 5847 5847 5848 5848 5848 5848 5847 5847
5880 5880 5881 5880 5880 5879 5879 5878 5877 5877 5876 5875 5874 5873 5872 5870 5869 5867 5865 5863 5861 5859 5857 5856 5854 5853 5852 5851 5850 5849 5848 5847 5846 5845 5845 5844 5844 5844 5845 5845 5845 5844 5844
5876 5877 5877 5877 5876 5876 5875 5875 5874 5874 5873 5872 5872 5870 5869 5868 5866 5864 5862 5861 5859 5857 5855 5854 5852 5851 5850 5848 5847 5846 5845 5844 5843 5842 5842 5841 5841 5841 5841 5841 5841 5841 5840
5872 5873 5873 5873 5873 5873 5872 5871 5870 5870 5870 5869 5868 5867 5866 5865 5863 5862 5860 5858 5856 5855 5853 5851 5850 5848 5847 5846 5845 5843 5842 5841 5840 5840 5839 5838 5838 5838 5838 5837 5837 5837 5836
5868 5869 5869 5869 5869 5868 5868 5868 5867 5866 5866 5866 5865 5864 5863 5862 5860 5859 5857 5856 5854 5852 5850 5848 5847 5845 5844 5842 5841 5840 5839 5838 5837 5836 5836 5835 5835 5834 5834 5834 5833 5833 5832
5863 5864 5864 5864 5865 5865 5865 5864 5863 5863 5862 5862 5862 5861 5860 5859 5857 5856 5854 5853 5851 5849 5847 5845 5844 5842 5841 5839 5838 5837 5836 5835 5834 5833 5833 5832 5831 5831 5830 5830 5829 5829 5829
5858 5859 5859 5860 5861 5861 5861 5860 5859 5859 5858 5858 5858 5857 5856 5854 5853 5851 5850 5849 5847 5845 5844 5842 5841 5839 5838 5836 5835 5833 5832 5831 5830 5830 5829 5828 5828 5827 5827 5826 5826 5826 5825
5854 5854 5855 5855 5856 5856 5856 5856 5855 5855 5854 5854 5854 5853 5851 5850 5848 5847 5846 5844 5843 5841 5840 5839 5838 5836 5835 5833 5832 5830 5829 5828 5827 5826 5825 5824 5824 5823 5823 5822 5822 5822 5821
5849 5849 5849 5850 5851 5851 5851 5851 5851 5851 5851 5850 5849 5848 5847 5845 5844 5842 5841 5840 5839 5837 5836 5835 5834 5833 5831 5830 5829 5827 5825 5824 5823 5822 5821 5820 5820 5819 5818 5818 5818 5818 5817
5843 5843 5844 5845 5846 5846 5846 5847 5847 5847 5846 5846 5845 5844 5842 5840 5839 5837 5836 5835 5834 5833 5832 5831 5830 5829 5827 5826 5825 5823 5822 5820 5819 5818 5817 5816 5816 5815 5814 5814 5814 5813 5813
5837 5838 5839 5840 5840 5841 5842 5842 5842 5842 5842 5841 5840 5839 5837 5836 5834 5833 5831 5830 5829 5829 5828 5827 5826 5824 5823 5822 5820 5819 5818 5816 5815 5814 5813 5812 5812 5811 5810 5810 5810 5809 5809
5832 5832 5833 5834 5835 5836 5836 5837 5837 5837 5837 5836 5836 5834 5833 5831 5830 5828 5826 5825 5824 5824 5823 5822 5821 5820 5818 5817 5816 5815 5813 5812 5811 5810 5809 5808 5808 5807 5807 5806 5806 5805 5804
5827 5827 5828 5829 5830 5830 5830 5831 5832 5832 5832 5831 5830 5830 5829 5827 5825 5823 5822 5821 5820 5819 5818 5817 5816 5814 5813 5812 5811 5810 5809 5807 5807 5806 5805 5805 5804 5803 5803 5802 5801 5801 5800
5822 5822 5823 5824 5824 5824 5824 5825 5827 5827 5826 5826 5825 5825 5823 5822 5821 5819 5818 5816 5815 5815 5814 5812 5810 5810 5808 5807 5806 5805 5804 5803 5803 5802 5801 5801 5800 5799 5798 5798 5797 5796 5795
5816 5817 5817 5817 5818 5819 5819 5819 5820 5821 5821 5821 5820 5819 5818 5816 5815 5815 5814 5812 5811 5810 5809 5807 5805 5804 5803 5802 5801 5800 5799 5799 5798 5798 5797 5796 5795 5794 5794 5793 5792 5791 5790
5810 5811 5811 5811 5811 5812 5813 5813 5813 5814 5815 5815 5815 5814 5813 5812 5810 5809 5809 5808 5807 5806 5804 5803 5801 5800 5798 5797 5796 5795 5794 5794 5793 5792 5792 5791 5790 5789 5789 5788 5787 5786 5785
5804 5805 5806 5806 5806 5806 5807 5807 5807 5808 5809 5809 5809 5808 5807 5807 5806 5805 5804 5803 5802 5801 5800 5798 5796 5795 5794 5792 5791 5790 5789 5789 5788 5787 5786 5786 5785 5784 5783 5782 5781 5780 5779
5798 5799 5799 5800 5800 5800 5801 5802 5802 5803 5803 5803 5803 5802 5802 5801 5800 5800 5799 5798 5797 5796 5794 5793 5792 5790 5788 5787 5786 5785 5784 5783 5782 5781 5781 5780 5779 5778 5777 5776 5775 5774 5772
5791 5792 5793 5794 5794 5794 5795 5796 5796 5797 5797 5797 5797 5796 5796 5795 5794 5794 5793 5792 5791 5790 5789 5788 5786 5784 5783 5782 5781 5779 5779 5778 5777 5776 5775 5774 5773 5772 5771 5770 5768 5767 5765
5784 5785 5786 5787 5788 5788 5789 5790 5790 5790 5791 5791 5791 5790 5790 5789 5788 5788 5787 5786 5785 5785 5784 5782 5781 5779 5778 5777 5776 5775 5773 5772 5771 5770 5769 5768 5767 5765 5764 5763 5761 5760 5758
5777 5778 5779 5780 5781 5781 5782 5783 5784 5784 5784 5784 5784 5784 5783 5783 5782 5782 5781 5780 5780 5779 5778 5777 5776 5774 5773 5772 5770 5769 5768 5766 5765 5763 5762 5761 5760 5758 5757 5755 5754 5753 5751
5770 5771 5773 5774 5774 5775 5775 5776 5776 5777 5777 5777 5776 5776 5776 5776 5776 5775 5775 5774 5774 5773 5772 5771 5770 5769 5768 5766 5765 5763 5762 5760 5759 5757 5755 5754 5753 5751 5749 5748 5747 5745 5744
5764 5765 5766 5767 5767 5768 5768 5769 5769 5770 5770 5770 5769 5769 5770 5770 5769 5769 5768 5767 5767 5767 5766 5765 5764 5763 5762 5760 5759 5758 5756 5754 5752 5751 5749 5747 5746 5744 5743 5741 5740 5738 5737